This is the latest recevied weather packets stored in our database for station/object WA9SDJ-13. If no packets are shown the sender has not sent any weather packets the latest 10 day(s).
| Time | Temp. | Humidity | Pressure | Rain* | Wind** | Luminosity | Snow |
|---|---|---|---|---|---|---|---|
| 1777915925 | 16.11° C | 85% | 1006.5 hPa | 0.76 mm | - | 30 W/m² | - |
| 1777915864 | 16.11° C | 85% | 1006.6 hPa | 0.76 mm | - | 19 W/m² | - |
| 1777915803 | 16.11° C | 84% | 1006.8 hPa | 0.76 mm | - | 16 W/m² | - |
| 1777915742 | 16.11° C | 84% | 1006.8 hPa | 0.76 mm | - | 14 W/m² | - |
| 1777915682 | 16.67° C | 83% | 1006.9 hPa | 0.76 mm | - | 12 W/m² | - |
| 1777915622 | 16.67° C | 83% | 1007 hPa | 0.51 mm | - | 12 W/m² | - |
| 1777915562 | 16.67° C | 83% | 1007.1 hPa | 0.51 mm | - | 11 W/m² | - |
| 1777915503 | 16.67° C | 82% | 1007.2 hPa | 0.51 mm | - | 9 W/m² | - |
| 1777915442 | 16.67° C | 82% | 1007.3 hPa | 0.51 mm | - | 7 W/m² | - |
| 1777915383 | 16.67° C | 81% | 1007.3 hPa | 0.51 mm | - | 7 W/m² | - |
| 1777915322 | 16.67° C | 81% | 1007.3 hPa | 0.51 mm | - | 7 W/m² | - |
| 1777915262 | 16.67° C | 81% | 1007.4 hPa | 0.25 mm | - | 7 W/m² | - |
| 1777915203 | 16.67° C | 81% | 1007.4 hPa | 0.25 mm | - | 9 W/m² | - |
| 1777915143 | 16.67° C | 81% | 1007.3 hPa | 0.25 mm | - | 9 W/m² | - |
| 1777915082 | 16.67° C | 80% | 1007.3 hPa | 0.25 mm | - | 9 W/m² | - |
| 1777915022 | 16.67° C | 80% | 1007.3 hPa | 0.25 mm | - | 9 W/m² | - |
| 1777914963 | 16.67° C | 80% | 1007.1 hPa | 0.25 mm | - | 9 W/m² | - |
| 1777914934 | 16.67° C | 79% | 1007.2 hPa | 0.25 mm | - | 9 W/m² | - |
| 1777914842 | 16.67° C | 79% | 1007 hPa | 0.25 mm | - | 9 W/m² | - |
| 1777914782 | 16.67° C | 79% | 1007.1 hPa | 0.25 mm | - | 9 W/m² | - |
| 1777914722 | 17.22° C | 79% | 1007.1 hPa | 0.25 mm | - | 9 W/m² | - |
| 1777914662 | 17.22° C | 78% | 1007.1 hPa | 0.25 mm | - | 11 W/m² | - |
| 1777914602 | 17.22° C | 78% | 1006.9 hPa | 0.25 mm | - | 11 W/m² | - |
| 1777914542 | 17.22° C | 77% | 1006.8 hPa | 0.25 mm | - | 11 W/m² | - |
| 1777914482 | 17.22° C | 77% | 1006.7 hPa | 0.25 mm | - | 12 W/m² | - |
* Rain latest hour (hover to see other rain measurements)
** Current wind speed in m/s (hover to see current wind gust speed)